Time,TemperatureF,DewpointF,PressureIn,WindDirection,WindDirectionDegrees,WindSpeedMPH,WindSpeedGustMPH,Humidity,HourlyPrecipIn,Conditions,Clouds,dailyrainin,SoftwareType,DateUTC
2013-05-08 00:02:00,53.0,42.0,29.89,North,355,0.0,0.0,67,0.00,,,0.00,,2013-05-08 05:02:00,
2013-05-08 00:12:00,53.0,42.0,29.89,North,355,0.0,0.0,67,0.00,,,0.00,,2013-05-08 05:12:00,
2013-05-08 00:22:00,53.0,44.0,29.89,North,355,0.0,0.0,71,0.00,,,0.00,,2013-05-08 05:22:00,
2013-05-08 00:32:00,52.0,43.0,29.89,North,355,0.0,0.0,70,0.00,,,0.00,,2013-05-08 05:32:00,
2013-05-08 00:42:00,52.0,43.0,29.89,North,355,0.0,0.0,70,0.00,,,0.00,,2013-05-08 05:42:00,
2013-05-08 00:52:00,51.0,42.0,29.89,North,355,0.0,0.0,72,0.00,,,0.00,,2013-05-08 05:52:00,
2013-05-08 01:01:00,51.0,43.0,29.89,North,355,0.0,0.0,74,0.00,,,0.00,,2013-05-08 06:01:00,
2013-05-08 01:12:00,51.0,43.0,29.89,North,355,0.0,0.0,74,0.00,,,0.00,,2013-05-08 06:12:00,
2013-05-08 01:21:00,50.0,42.0,29.89,North,355,0.0,0.0,75,0.00,,,0.00,,2013-05-08 06:21:00,
2013-05-08 01:32:00,50.0,42.0,29.89,North,355,0.0,0.0,75,0.00,,,0.00,,2013-05-08 06:32:00,
2013-05-08 01:41:00,50.0,42.0,29.89,North,355,0.0,0.0,75,0.00,,,0.00,,2013-05-08 06:41:00,
2013-05-08 01:52:00,49.0,42.0,29.89,North,355,0.0,0.0,76,0.00,,,0.00,,2013-05-08 06:52:00,
2013-05-08 02:01:00,49.0,42.0,29.89,North,355,0.0,0.0,77,0.00,,,0.00,,2013-05-08 07:01:00,
2013-05-08 02:11:00,49.0,42.0,29.89,North,355,0.0,0.0,77,0.00,,,0.00,,2013-05-08 07:11:00,
2013-05-08 02:21:00,49.0,42.0,29.89,North,355,0.0,0.0,78,0.00,,,0.00,,2013-05-08 07:21:00,
2013-05-08 02:31:00,48.0,42.0,29.89,North,355,0.0,0.0,79,0.00,,,0.00,,2013-05-08 07:31:00,
2013-05-08 02:42:00,48.0,42.0,29.89,North,355,0.0,0.0,79,0.00,,,0.00,,2013-05-08 07:42:00,
2013-05-08 02:52:00,48.0,42.0,29.89,North,355,0.0,0.0,80,0.00,,,0.00,,2013-05-08 07:52:00,
2013-05-08 03:01:00,47.0,42.0,29.89,North,355,0.0,0.0,82,0.00,,,0.00,,2013-05-08 08:01:00,
2013-05-08 03:11:00,47.0,42.0,29.89,North,355,0.0,0.0,82,0.00,,,0.00,,2013-05-08 08:11:00,
2013-05-08 03:21:00,47.0,42.0,29.89,North,355,0.0,0.0,83,0.00,,,0.00,,2013-05-08 08:21:00,
2013-05-08 03:31:00,47.0,42.0,29.90,North,355,0.0,0.0,83,0.00,,,0.00,,2013-05-08 08:31:00,
2013-05-08 03:42:00,47.0,42.0,29.90,North,355,0.0,0.0,83,0.00,,,0.00,,2013-05-08 08:42:00,
2013-05-08 03:52:00,46.0,41.0,29.90,North,355,0.0,0.0,83,0.00,,,0.00,,2013-05-08 08:52:00,
2013-05-08 04:02:00,46.0,41.0,29.90,North,355,0.0,0.0,83,0.00,,,0.00,,2013-05-08 09:02:00,
2013-05-08 04:11:00,46.0,41.0,29.90,North,355,0.0,0.0,83,0.00,,,0.00,,2013-05-08 09:11:00,
2013-05-08 04:21:00,46.0,41.0,29.90,North,355,0.0,0.0,84,0.00,,,0.00,,2013-05-08 09:21:00,
2013-05-08 04:32:00,46.0,41.0,29.90,North,355,0.0,0.0,84,0.00,,,0.00,,2013-05-08 09:32:00,
2013-05-08 04:42:00,46.0,41.0,29.90,North,355,0.0,0.0,84,0.00,,,0.00,,2013-05-08 09:42:00,
2013-05-08 04:53:00,45.0,41.0,29.90,North,355,0.0,0.0,85,0.00,,,0.00,,2013-05-08 09:53:00,
2013-05-08 05:02:00,45.0,41.0,29.90,North,355,0.0,0.0,85,0.00,,,0.00,,2013-05-08 10:02:00,
2013-05-08 05:12:00,45.0,41.0,29.90,North,355,0.0,0.0,85,0.00,,,0.00,,2013-05-08 10:12:00,
2013-05-08 05:22:00,45.0,41.0,29.90,North,355,0.0,0.0,86,0.00,,,0.00,,2013-05-08 10:22:00,
2013-05-08 05:33:00,44.0,40.0,29.91,North,355,0.0,0.0,86,0.00,,,0.00,,2013-05-08 10:33:00,
2013-05-08 05:42:00,44.0,40.0,29.91,North,355,0.0,0.0,86,0.00,,,0.00,,2013-05-08 10:42:00,
2013-05-08 05:52:00,44.0,40.0,29.91,North,355,0.0,0.0,87,0.00,,,0.00,,2013-05-08 10:52:00,
2013-05-08 06:02:00,44.0,40.0,29.91,North,355,0.0,0.0,87,0.00,,,0.00,,2013-05-08 11:02:00,
2013-05-08 06:11:00,44.0,40.0,29.91,North,355,0.0,0.0,87,0.00,,,0.00,,2013-05-08 11:11:00,
2013-05-08 06:22:00,44.0,40.0,29.91,North,355,0.0,0.0,87,0.00,,,0.00,,2013-05-08 11:22:00,
2013-05-08 06:32:00,44.0,40.0,29.91,North,355,0.0,0.0,87,0.00,,,0.00,,2013-05-08 11:32:00,
2013-05-08 06:42:00,44.0,40.0,29.91,North,355,0.0,0.0,87,0.00,,,0.00,,2013-05-08 11:42:00,
2013-05-08 06:52:00,44.0,41.0,29.92,North,355,0.0,0.0,88,0.00,,,0.00,,2013-05-08 11:52:00,
2013-05-08 07:01:00,44.0,41.0,29.92,North,355,0.0,0.0,88,0.00,,,0.00,,2013-05-08 12:01:00,
2013-05-08 07:11:00,44.0,41.0,29.92,North,355,0.0,0.0,88,0.00,,,0.00,,2013-05-08 12:11:00,
2013-05-08 07:21:00,45.0,42.0,29.92,North,355,0.0,0.0,88,0.00,,,0.00,,2013-05-08 12:21:00,
2013-05-08 07:32:00,45.0,42.0,29.92,North,355,0.0,0.0,89,0.00,,,0.00,,2013-05-08 12:32:00,
2013-05-08 07:41:00,45.0,42.0,29.92,North,355,0.0,0.0,89,0.00,,,0.00,,2013-05-08 12:41:00,
2013-05-08 07:51:00,46.0,43.0,29.92,North,355,0.0,0.0,89,0.00,,,0.00,,2013-05-08 12:51:00,
2013-05-08 08:01:00,47.0,43.0,29.93,North,355,0.0,0.0,87,0.00,,,0.00,,2013-05-08 13:01:00,
2013-05-08 08:11:00,47.0,43.0,29.93,North,355,0.0,0.0,87,0.00,,,0.00,,2013-05-08 13:11:00,
2013-05-08 08:21:00,49.0,44.0,29.93,North,355,0.0,0.0,84,0.00,,,0.00,,2013-05-08 13:21:00,
2013-05-08 08:32:00,51.0,45.0,29.92,North,355,0.0,0.0,81,0.00,,,0.00,,2013-05-08 13:32:00,
2013-05-08 08:42:00,51.0,45.0,29.92,North,355,0.0,0.0,81,0.00,,,0.00,,2013-05-08 13:42:00,
2013-05-08 08:52:00,55.0,44.0,29.93,North,355,0.0,0.0,67,0.00,,,0.00,,2013-05-08 13:52:00,
2013-05-08 09:02:00,57.0,46.0,29.93,North,355,0.0,0.0,66,0.00,,,0.00,,2013-05-08 14:02:00,
2013-05-08 09:11:00,57.0,46.0,29.93,North,355,0.0,0.0,66,0.00,,,0.00,,2013-05-08 14:11:00,
2013-05-08 09:21:00,59.0,47.0,29.93,North,355,0.0,0.0,64,0.00,,,0.00,,2013-05-08 14:21:00,
2013-05-08 09:31:00,61.0,47.0,29.93,North,355,0.0,0.0,59,0.00,,,0.00,,2013-05-08 14:31:00,
2013-05-08 09:42:00,61.0,47.0,29.93,North,355,0.0,0.0,59,0.00,,,0.00,,2013-05-08 14:42:00,
2013-05-08 09:51:00,64.0,47.0,29.92,North,355,0.0,0.0,55,0.00,,,0.00,,2013-05-08 14:51:00,
2013-05-08 10:02:00,66.0,47.0,29.92,North,355,0.0,0.0,50,0.00,,,0.00,,2013-05-08 15:02:00,
2013-05-08 10:11:00,66.0,47.0,29.92,North,355,0.0,0.0,50,0.00,,,0.00,,2013-05-08 15:11:00,
2013-05-08 10:21:00,69.0,47.0,29.92,North,355,0.0,0.0,45,0.00,,,0.00,,2013-05-08 15:21:00,
2013-05-08 10:33:00,74.0,46.0,29.92,North,355,0.0,0.0,37,0.00,,,0.00,,2013-05-08 15:33:00,
2013-05-08 10:42:00,74.0,46.0,29.92,North,355,0.0,0.0,37,0.00,,,0.00,,2013-05-08 15:42:00,
2013-05-08 10:53:00,75.0,46.0,29.92,North,355,0.0,0.0,36,0.00,,,0.00,,2013-05-08 15:53:00,
2013-05-08 11:03:00,76.0,46.0,29.92,North,355,0.0,0.0,34,0.00,,,0.00,,2013-05-08 16:03:00,
2013-05-08 11:12:00,76.0,46.0,29.92,North,355,0.0,0.0,34,0.00,,,0.00,,2013-05-08 16:12:00,
2013-05-08 11:23:00,78.0,47.0,29.92,North,355,0.0,0.0,33,0.00,,,0.00,,2013-05-08 16:23:00,
2013-05-08 11:33:00,78.0,44.0,29.91,North,355,0.0,0.0,30,0.00,,,0.00,,2013-05-08 16:33:00,
2013-05-08 11:42:00,78.0,44.0,29.91,North,355,0.0,0.0,30,0.00,,,0.00,,2013-05-08 16:42:00,
2013-05-08 11:52:00,81.0,44.0,29.91,North,355,0.0,0.0,27,0.00,,,0.00,,2013-05-08 16:52:00,
2013-05-08 12:02:00,82.0,43.0,29.91,North,355,0.0,0.0,25,0.00,,,0.00,,2013-05-08 17:02:00,
2013-05-08 12:12:00,82.0,43.0,29.91,North,355,0.0,0.0,25,0.00,,,0.00,,2013-05-08 17:12:00,
2013-05-08 12:22:00,83.0,44.0,29.91,North,355,0.0,0.0,25,0.00,,,0.00,,2013-05-08 17:22:00,
2013-05-08 12:31:00,83.0,44.0,29.91,North,355,0.0,0.0,25,0.00,,,0.00,,2013-05-08 17:31:00,
2013-05-08 12:41:00,83.0,44.0,29.91,North,355,0.0,0.0,25,0.00,,,0.00,,2013-05-08 17:41:00,
2013-05-08 12:52:00,82.0,41.0,29.90,North,355,0.0,0.0,23,0.00,,,0.00,,2013-05-08 17:52:00,
2013-05-08 13:02:00,81.0,41.0,29.90,North,355,0.0,0.0,24,0.00,,,0.00,,2013-05-08 18:02:00,
2013-05-08 13:11:00,81.0,41.0,29.90,North,355,0.0,0.0,24,0.00,,,0.00,,2013-05-08 18:11:00,
2013-05-08 13:21:00,80.0,41.0,29.89,NNW,346,0.0,0.0,25,0.00,,,0.00,,2013-05-08 18:21:00,
2013-05-08 13:31:00,80.0,41.0,29.89,NNW,346,0.0,0.0,25,0.00,,,0.00,,2013-05-08 18:31:00,
2013-05-08 13:42:00,80.0,40.0,29.88,NNW,346,0.0,0.0,24,0.00,,,0.00,,2013-05-08 18:42:00,
2013-05-08 13:52:00,80.0,40.0,29.88,NNW,346,0.0,0.0,24,0.00,,,0.00,,2013-05-08 18:52:00,
2013-05-08 14:01:00,78.0,41.0,29.88,NNW,346,0.0,0.0,27,0.00,,,0.00,,2013-05-08 19:01:00,
2013-05-08 14:11:00,78.0,41.0,29.88,NNW,346,0.0,0.0,27,0.00,,,0.00,,2013-05-08 19:11:00,
2013-05-08 14:21:00,79.0,40.0,29.88,NNW,346,0.0,0.0,25,0.00,,,0.00,,2013-05-08 19:21:00,
2013-05-08 14:32:00,80.0,39.0,29.88,NNW,346,0.0,0.0,23,0.00,,,0.00,,2013-05-08 19:32:00,
2013-05-08 14:42:00,80.0,39.0,29.88,NNW,346,0.0,0.0,23,0.00,,,0.00,,2013-05-08 19:42:00,
2013-05-08 14:52:00,79.0,41.0,29.88,NNW,346,0.0,0.0,26,0.00,,,0.00,,2013-05-08 19:52:00,
2013-05-08 15:02:00,79.0,39.0,29.87,NNW,346,0.0,0.0,24,0.00,,,0.00,,2013-05-08 20:02:00,
2013-05-08 15:11:00,79.0,39.0,29.87,NNW,346,0.0,0.0,24,0.00,,,0.00,,2013-05-08 20:11:00,
2013-05-08 15:22:00,79.0,39.0,29.87,NNW,346,0.0,0.0,24,0.00,,,0.00,,2013-05-08 20:22:00,
2013-05-08 15:32:00,79.0,39.0,29.86,NNW,346,0.0,0.0,24,0.00,,,0.00,,2013-05-08 20:32:00,
2013-05-08 15:42:00,79.0,38.0,29.85,NNW,346,0.0,0.0,23,0.00,,,0.00,,2013-05-08 20:42:00,
2013-05-08 15:51:00,79.0,38.0,29.85,NNW,346,0.0,0.0,23,0.00,,,0.00,,2013-05-08 20:51:00,
2013-05-08 16:01:00,79.0,40.0,29.85,NNW,346,0.0,0.0,25,0.00,,,0.00,,2013-05-08 21:01:00,
2013-05-08 16:12:00,78.0,38.0,29.85,NNW,346,0.0,0.0,24,0.00,,,0.00,,2013-05-08 21:12:00,
2013-05-08 16:21:00,78.0,38.0,29.85,NNW,346,0.0,0.0,24,0.00,,,0.00,,2013-05-08 21:21:00,
2013-05-08 16:33:00,78.0,38.0,29.85,NNW,346,0.0,0.0,24,0.00,,,0.00,,2013-05-08 21:33:00,
2013-05-08 16:43:00,77.0,38.0,29.85,NNW,346,0.0,0.0,25,0.00,,,0.00,,2013-05-08 21:43:00,
2013-05-08 16:53:00,77.0,38.0,29.85,NNW,346,0.0,0.0,25,0.00,,,0.00,,2013-05-08 21:53:00,
2013-05-08 17:02:00,77.0,41.0,29.85,NNW,346,0.0,0.0,28,0.00,,,0.00,,2013-05-08 22:02:00,
2013-05-08 17:12:00,77.0,38.0,29.84,NNW,346,0.0,0.0,25,0.00,,,0.00,,2013-05-08 22:12:00,
2013-05-08 17:22:00,77.0,38.0,29.84,NNW,346,0.0,0.0,25,0.00,,,0.00,,2013-05-08 22:22:00,
2013-05-08 17:33:00,77.0,39.0,29.84,NNW,346,0.0,0.0,26,0.00,,,0.00,,2013-05-08 22:33:00,
2013-05-08 17:42:00,77.0,43.0,29.84,NNW,346,0.0,0.0,30,0.00,,,0.00,,2013-05-08 22:42:00,
2013-05-08 17:52:00,77.0,43.0,29.84,NNW,346,0.0,0.0,30,0.00,,,0.00,,2013-05-08 22:52:00,
2013-05-08 18:01:00,77.0,41.0,29.84,NNW,346,0.0,0.0,28,0.00,,,0.00,,2013-05-08 23:01:00,
2013-05-08 18:11:00,78.0,40.0,29.84,NNW,346,0.0,0.0,26,0.00,,,0.00,,2013-05-08 23:11:00,
2013-05-08 18:22:00,78.0,40.0,29.84,NNW,346,0.0,0.0,26,0.00,,,0.00,,2013-05-08 23:22:00,
2013-05-08 18:32:00,78.0,43.0,29.84,NNW,346,0.0,0.0,29,0.00,,,0.00,,2013-05-08 23:32:00,
2013-05-08 18:42:00,76.0,46.0,29.84,NNW,346,0.0,0.0,34,0.00,,,0.00,,2013-05-08 23:42:00,
2013-05-08 18:52:00,76.0,46.0,29.84,NNW,346,0.0,0.0,34,0.00,,,0.00,,2013-05-08 23:52:00,
2013-05-08 19:02:00,75.0,41.0,29.84,NNW,346,0.0,0.0,30,0.00,,,0.00,,2013-05-09 00:02:00,
2013-05-08 19:11:00,75.0,42.0,29.84,NNW,346,0.0,0.0,31,0.00,,,0.00,,2013-05-09 00:11:00,
2013-05-08 19:21:00,75.0,42.0,29.84,NNW,346,0.0,0.0,31,0.00,,,0.00,,2013-05-09 00:21:00,
2013-05-08 19:32:00,74.0,45.0,29.84,NNW,346,0.0,0.0,35,0.00,,,0.00,,2013-05-09 00:32:00,
2013-05-08 19:42:00,73.0,44.0,29.84,NNW,346,0.0,0.0,36,0.00,,,0.00,,2013-05-09 00:42:00,
2013-05-08 19:51:00,73.0,44.0,29.84,NNW,346,0.0,0.0,36,0.00,,,0.00,,2013-05-09 00:51:00,
2013-05-08 20:01:00,72.0,46.0,29.84,NNW,346,0.0,0.0,40,0.00,,,0.00,,2013-05-09 01:01:00,
2013-05-08 20:11:00,72.0,48.0,29.84,NNW,346,0.0,0.0,42,0.00,,,0.00,,2013-05-09 01:11:00,
2013-05-08 20:22:00,72.0,48.0,29.84,NNW,346,0.0,0.0,42,0.00,,,0.00,,2013-05-09 01:22:00,
2013-05-08 20:32:00,70.0,49.0,29.85,NNW,346,0.0,0.0,48,0.00,,,0.00,,2013-05-09 01:32:00,
2013-05-08 20:42:00,68.0,50.0,29.85,NNW,346,0.0,0.0,52,0.00,,,0.00,,2013-05-09 01:42:00,
2013-05-08 20:52:00,68.0,50.0,29.85,NNW,346,0.0,0.0,52,0.00,,,0.00,,2013-05-09 01:52:00,
2013-05-08 21:02:00,67.0,48.0,29.85,NNW,346,0.0,0.0,51,0.00,,,0.00,,2013-05-09 02:02:00,
2013-05-08 21:11:00,67.0,48.0,29.85,NNW,346,0.0,0.0,50,0.00,,,0.00,,2013-05-09 02:11:00,
2013-05-08 21:21:00,67.0,48.0,29.85,NNW,346,0.0,0.0,50,0.00,,,0.00,,2013-05-09 02:21:00,
2013-05-08 21:32:00,67.0,49.0,29.86,NNW,346,0.0,0.0,53,0.00,,,0.00,,2013-05-09 02:32:00,
2013-05-08 21:41:00,67.0,49.0,29.86,NNW,346,0.0,0.0,53,0.00,,,0.00,,2013-05-09 02:41:00,
2013-05-08 21:52:00,67.0,49.0,29.86,NNW,346,0.0,0.0,53,0.00,,,0.00,,2013-05-09 02:52:00,
2013-05-08 22:01:00,66.0,46.0,29.88,NNW,346,0.0,0.0,49,0.00,,,0.00,,2013-05-09 03:01:00,
2013-05-08 22:11:00,67.0,47.0,29.89,NNW,346,0.0,0.0,48,0.00,,,0.00,,2013-05-09 03:11:00,
2013-05-08 22:21:00,67.0,47.0,29.89,NNW,346,0.0,0.0,48,0.00,,,0.00,,2013-05-09 03:21:00,
2013-05-08 22:33:00,67.0,48.0,29.88,NNW,346,0.0,0.0,51,0.00,,,0.00,,2013-05-09 03:33:00,
2013-05-08 22:43:00,67.0,49.0,29.88,NNW,346,0.0,0.0,52,0.00,,,0.00,,2013-05-09 03:43:00,
2013-05-08 22:52:00,67.0,49.0,29.88,NNW,346,0.0,0.0,52,0.00,,,0.00,,2013-05-09 03:52:00,
2013-05-08 23:03:00,67.0,50.0,29.88,NNW,344,0.0,0.0,54,0.00,,,0.00,,2013-05-09 04:03:00,
2013-05-08 23:12:00,67.0,50.0,29.88,NNW,344,0.0,0.0,54,0.00,,,0.00,,2013-05-09 04:12:00,
2013-05-08 23:23:00,66.0,50.0,29.89,North,349,0.0,0.0,56,0.00,,,0.00,,2013-05-09 04:23:00,
2013-05-08 23:33:00,65.0,49.0,29.89,SSW,200,0.0,0.0,57,0.00,,,0.00,,2013-05-09 04:33:00,
2013-05-08 23:43:00,65.0,49.0,29.89,SSW,200,0.0,0.0,57,0.00,,,0.00,,2013-05-09 04:43:00,
2013-05-08 23:53:00,65.0,51.0,29.89,SSW,200,0.0,0.0,60,0.00,,,0.00,,2013-05-09 04:53:00,